[[{"header":{"parameterUnit":"m.s-1","parameterCategory":1,"la1":30.2991,"la2":30.254,"lo1":-89.0895,"lo2":-89.0444,"dy":0.0017,"dx":0.0017,"nx":28,"ny":28,"refTime":"2024-05-14T21:00:00:Z","depth":0,"parameterNumber":2,"parameterNumberName":"U-component_of_WINDS"},"data":[0,0,0,0,0,0,0,0,0,0,0,0,0,0,0,0,0,0,0,0,0,0,0,0,0,0,0,0,0,0,0,0,0,0,0,0,0,0,0,0,0,0,0,0,0,0,0,0,0,0,0,0,0,0,0,0,0,0,-0.5925,-0.5925,0,-0.5902,-0.5902,-0.5902,-0.5969,-0.5971,-0.5973,-0.5975,-0.5948,-0.5946,-0.5943,0,0,0,0,0,0,0,0,0,0,0,0,0,-0.6022,-0.602,-0.5925,-0.5925,-0.5924,-0.5903,-0.5902,-0.5902,-0.5969,-0.5971,-0.5974,-0.5976,-0.5949,-0.5946,-0.5943,0,0,0,0,0,0,0,0,0,0,0,0,0,-0.5988,-0.602,-0.5925,-0.5955,-0.5958,-0.5903,-0.5902,-0.5902,-0.5968,-0.5971,-0.5974,-0.5977,-0.595,-0.5946,-0.5943,-0.5856,0,0,-0.593,-0.5929,0,0,0,0,0,0,0,0,-0.599,-0.5984,-0.5951,-0.5953,-0.5956,-0.5942,-0.5927,-0.5886,-0.5967,-0.5964,-0.5975,-0.5979,-0.5943,-0.594,-0.5929,-0.5855,-0.5854,-0.593,-0.5928,-0.5926,-0.5925,0,0,0,0,0,0,0,-0.5992,-0.5985,-0.5916,-0.595,-0.5953,-0.5969,-0.5967,-0.592,-0.5936,-0.5964,-0.5969,-0.5966,-0.5945,-0.5933,-0.5929,-0.5854,-0.593,-0.5927,-0.5924,-0.5923,-0.5707,-0.5703,0,0,0,0,0,0,-0.5991,-0.5987,-0.5917,-0.5915,-0.5981,-0.5964,-0.5963,-0.5943,-0.5937,-0.5939,-0.5963,-0.5969,-0.5938,-0.5934,-0.5928,-0.5826,-0.5926,-0.5922,-0.592,-0.571,-0.5706,-0.5702,0,0,0,0,0,0,-0.5993,-0.5984,-0.5918,-0.5952,-0.5945,-0.5959,-0.5937,-0.5941,-0.5928,-0.5936,-0.5939,-0.5947,-0.594,-0.5934,-0.5874,-0.5826,-0.5921,-0.5917,-0.5714,-0.5709,-0.5704,-0.562,0,0,0,0,0,0,-0.5995,-0.5984,-0.5952,-0.5951,-0.5943,-0.5864,-0.5934,-0.5938,-0.5922,-0.5929,-0.5922,-0.5924,-0.5942,-0.5879,-0.587,-0.5822,-0.5914,-0.5718,-0.5712,-0.5706,-0.5627,-0.5613,-0.5601,0,0,0,0,0,-0.5999,-0.5929,-0.595,-0.5941,-0.5904,-0.5861,-0.5856,-0.5879,-0.5918,-0.5885,-0.589,-0.5924,-0.5833,-0.5873,-0.5862,-0.5813,-0.5721,-0.5714,-0.5706,-0.5633,-0.5616,-0.5601,0,0,0,0,0,0,-0.5922,-0.5929,-0.5953,-0.5881,-0.587,-0.5872,-0.5832,-0.586,-0.5837,-0.5845,-0.5874,-0.5871,-0.5805,-0.5804,-0.5847,-0.5729,-0.5784,-0.5774,-0.5732,-0.5715,-0.5702,-0.5703,-0.5911,0,0,0,0,0,-0.5898,-0.5864,-0.5871,-0.5807,-0.5801,-0.5817,-0.5799,-0.5818,-0.5808,-0.5803,-0.5804,-0.5791,-0.5759,-0.5738,-0.5709,-0.5629,-0.5627,-0.5589,-0.5576,-0.5565,-0.5555,-0.5511,-0.5494,-0.5677,-0.5677,-0.5678,0,0,-0.5845,-0.5845,-0.5821,-0.5792,-0.5785,-0.5748,-0.5812,-0.5771,-0.5743,-0.5796,-0.5739,-0.5739,-0.5727,-0.5656,-0.5625,-0.5652,-0.5505,-0.5555,-0.5547,-0.5543,-0.5501,-0.5484,-0.5468,-0.5672,-0.5673,-0.5674,0,0,-0.573,-0.5727,-0.5673,-0.5666,-0.5656,-0.5668,-0.5655,-0.5653,-0.5655,-0.5599,-0.5638,-0.5605,-0.5551,-0.554,-0.5527,-0.5409,-0.5439,-0.5399,-0.5328,-0.5285,-0.527,-0.5258,-0.5213,-0.5198,-0.539,-0.539,-0.539,0,-0.5666,-0.5612,-0.5641,-0.5597,-0.5582,-0.563,-0.5575,-0.5566,-0.5546,-0.5534,-0.5567,-0.5499,-0.5494,-0.542,-0.5392,-0.5381,-0.5365,-0.5399,-0.5271,-0.5258,-0.5246,-0.5205,-0.5188,-0.5385,-0.5385,-0.5386,-0.5386,0,-0.5533,-0.5495,-0.5452,-0.5433,-0.5414,-0.5364,-0.5384,-0.5361,-0.5383,-0.5391,-0.5332,-0.5329,-0.53,-0.5284,-0.5304,-0.5213,-0.523,-0.5266,-0.5321,-0.5223,-0.5184,-0.5169,-0.5378,-0.538,-0.5381,-0.5382,0,0,-0.5366,-0.5365,-0.5349,-0.5341,-0.5334,-0.5305,-0.5257,-0.523,-0.5209,-0.5194,-0.5153,-0.5107,-0.514,-0.5125,-0.5145,-0.5107,-0.5012,-0.5147,-0.5148,-0.512,-0.4909,-0.488,-0.4861,-0.5033,-0.503,-0.5028,-0.4909,0,-0.5251,-0.517,-0.5195,-0.5112,-0.5077,-0.5123,-0.5082,-0.5072,-0.5079,-0.5049,-0.5056,-0.5022,-0.5069,-0.5061,-0.5026,-0.503,-0.4969,-0.504,-0.4993,-0.4991,-0.4991,-0.4841,-0.481,-0.4698,-0.4894,-0.4892,-0.489,0,-0.5106,-0.5086,-0.5,-0.4999,-0.4985,-0.4947,-0.4924,-0.4896,-0.4886,-0.4894,-0.4878,-0.4905,-0.4857,-0.4915,-0.4848,-0.4896,-0.4879,-0.4878,-0.4875,-0.4868,-0.4932,-0.4828,-0.4663,-0.4645,-0.4867,-0.4868,-0.487,0,-0.499,-0.4943,-0.4885,-0.4877,-0.4875,-0.4847,-0.4844,-0.4838,-0.482,-0.48,-0.4788,-0.4763,-0.4748,-0.4727,-0.4746,-0.4787,-0.4675,-0.4735,-0.4678,-0.4677,-0.465,-0.4651,-0.4477,-0.4643,-0.4644,-0.4644,-0.4644,0,-0.4857,-0.4802,-0.4833,-0.4797,-0.4736,-0.4766,-0.4705,-0.4708,-0.4702,-0.4666,-0.4706,-0.4671,-0.47,-0.4668,-0.4683,-0.4624,-0.4618,-0.4621,-0.4625,-0.4616,-0.4615,-0.4603,-0.461,-0.4639,-0.464,-0.4641,-0.4642,0,-0.4716,-0.4735,-0.4675,-0.4679,-0.4678,-0.4633,-0.4636,-0.4602,-0.4612,-0.4567,-0.4558,-0.4573,-0.4537,-0.4556,-0.4519,-0.4529,-0.4452,-0.4468,-0.4455,-0.4458,-0.4399,-0.4403,-0.4209,-0.4184,-0.4368,-0.4367,-0.4365,0,-0.4629,-0.4588,-0.4587,-0.4567,-0.4562,-0.4529,-0.4511,-0.4539,-0.4519,-0.4505,-0.4472,-0.4441,-0.4416,-0.4357,-0.4364,-0.4336,-0.4349,-0.4283,-0.4345,-0.4337,-0.4345,-0.4346,-0.4341,-0.427,-0.4268,-0.4266,-0.4264,0,-0.4471,-0.4483,-0.4456,-0.4432,-0.441,-0.4393,-0.4379,-0.436,-0.4387,-0.4362,-0.4327,-0.4308,-0.4271,-0.4238,-0.4213,-0.421,-0.424,-0.4246,-0.423,-0.4219,-0.4212,-0.4212,-0.4418,-0.4249,-0.4251,-0.4252,-0.4253,-0.4253,-0.4352,-0.4318,-0.4312,-0.4281,-0.4273,-0.4259,-0.4227,-0.4234,-0.4206,-0.4178,-0.4197,-0.4154,-0.4146,-0.4116,-0.4109,-0.4075,-0.4101,-0.408,-0.4074,-0.4067,-0.4058,-0.422,-0.4071,-0.4072,-0.4072,-0.4073,-0.4073,0,-0.4194,-0.4193,-0.4165,-0.4144,-0.4119,-0.4153,-0.4139,-0.4116,-0.4078,-0.4068,-0.4044,-0.4003,-0.3971,-0.3977,-0.3948,-0.392,-0.3933,-0.3911,-0.3912,-0.391,-0.4038,-0.4053,-0.3901,-0.3901,-0.3901,-0.3901,-0.3901,-0.3901,-0.4109,-0.4051,-0.4062,-0.4001,-0.4,-0.396,-0.3949,-0.3935,-0.3928,-0.388,-0.3855,-0.3859,-0.3855,-0.3826,-0.3798,-0.3801,-0.3787,-0.3759,-0.3766,-0.3884,-0.3901,-0.3917,-0.3931,-0.3756,-0.3756,-0.3641,-0.364,-0.3639]},{"header":{"parameterUnit":"m.s-1","parameterCategory":1,"la1":30.2991,"la2":30.254,"lo1":-89.0895,"lo2":-89.0444,"dy":0.0017,"dx":0.0017,"nx":28,"ny":28,"refTime":"2024-05-14T21:00:00:Z","depth":0,"parameterNumber":3,"parameterNumberName":"V-component_of_WINDS"},"data":[0,0,0,0,0,0,0,0,0,0,0,0,0,0,0,0,0,0,0,0,0,0,0,0,0,0,0,0,0,0,0,0,0,0,0,0,0,0,0,0,0,0,0,0,0,0,0,0,0,0,0,0,0,0,0,0,0,0,1.9996,1.9996,0,1.9965,1.9965,1.9965,1.9975,1.9975,1.9976,1.9977,1.9942,1.9941,1.9939,0,0,0,0,0,0,0,0,0,0,0,0,0,2.0063,2.0061,1.9996,1.9996,1.9995,1.9965,1.9965,1.9964,1.9975,1.9975,1.9976,1.9977,1.9943,1.9941,1.9939,0,0,0,0,0,0,0,0,0,0,0,0,0,2.0033,2.0061,1.9996,1.9997,1.9997,1.9965,1.9965,1.9964,1.9974,1.9975,1.9977,1.9977,1.9944,1.9941,1.9939,1.9904,0,0,1.9932,1.9931,0,0,0,0,0,0,0,0,2.0035,2.003,1.9997,1.9997,1.9997,1.9975,1.9976,1.9944,1.9974,1.9983,1.9977,1.9978,1.9952,1.9949,1.9941,1.9903,1.9901,1.9932,1.993,1.9929,1.9929,0,0,0,0,0,0,0,2.0037,2.0032,1.9984,1.9997,1.9996,1.9998,1.9995,1.997,1.9962,1.9982,1.9983,1.9979,1.9952,1.9943,1.994,1.9901,1.9932,1.993,1.9928,1.9927,1.9833,1.9832,0,0,0,0,0,0,2.0039,2.0033,1.9985,1.9983,2.0019,1.9996,1.9993,1.9981,1.9962,1.9961,1.9978,1.998,1.9947,1.9943,1.9939,1.9898,1.9929,1.9927,1.9926,1.9834,1.9833,1.9831,0,0,0,0,0,0,2.0041,2.0035,1.9986,2.0008,2.0002,1.9994,1.998,1.998,1.9971,1.996,1.9958,1.9971,1.9947,1.9943,1.9913,1.9897,1.9926,1.9924,1.9835,1.9834,1.9832,1.9814,0,0,0,0,0,0,2.0042,2.0035,2.0022,2.0008,2.0001,1.9961,1.9979,1.9978,1.9967,1.9969,1.9952,1.995,1.9948,1.9917,1.9911,1.9894,1.9922,1.9837,1.9834,1.9833,1.9816,1.9812,1.9809,0,0,0,0,0,2.0045,2.0018,2.0021,2.0016,1.9985,1.996,1.9956,1.9955,1.9966,1.9952,1.9945,1.9951,1.99,1.9914,1.9907,1.9889,1.9838,1.9835,1.9833,1.9818,1.9813,1.9809,0,0,0,0,0,0,2.0029,2.0016,2.002,1.9988,1.9975,1.9962,1.9945,1.9949,1.9933,1.9935,1.9933,1.9929,1.9899,1.9891,1.9907,1.9855,1.987,1.9866,1.9861,1.9856,1.9853,1.9855,1.992,0,0,0,0,0,2.0022,2.0004,1.9993,1.9965,1.9959,1.9953,1.9942,1.9942,1.9929,1.9923,1.9914,1.99,1.9881,1.9868,1.985,1.9815,1.9812,1.98,1.9796,1.9793,1.979,1.9771,1.9766,1.9823,1.9823,1.9823,0,0,2.0007,1.9997,1.9985,1.9962,1.9952,1.9933,1.9948,1.9927,1.9912,1.992,1.9892,1.9885,1.9869,1.9837,1.9823,1.983,1.9773,1.979,1.9788,1.9786,1.9768,1.9763,1.9758,1.9821,1.9822,1.9822,0,0,1.9969,1.996,1.9937,1.9927,1.9913,1.9909,1.9903,1.989,1.9886,1.9858,1.9863,1.9846,1.9813,1.9802,1.9792,1.9751,1.9756,1.9745,1.9725,1.9707,1.9703,1.9699,1.9684,1.9679,1.9742,1.9742,1.9742,0,1.9952,1.9923,1.9924,1.9902,1.9892,1.9899,1.9875,1.9865,1.9845,1.9837,1.9846,1.9805,1.9795,1.9761,1.9751,1.9743,1.9736,1.9747,1.9703,1.9699,1.9696,1.9682,1.9676,1.9741,1.9741,1.9741,1.9741,0,1.9903,1.9883,1.9866,1.9848,1.9835,1.9812,1.9809,1.9796,1.9798,1.9793,1.9765,1.9753,1.9733,1.9725,1.9726,1.9691,1.9696,1.9704,1.9719,1.9689,1.9676,1.9671,1.9739,1.9739,1.974,1.974,0,0,1.9853,1.9837,1.983,1.9822,1.9808,1.9792,1.977,1.9751,1.974,1.9726,1.9707,1.968,1.9688,1.9676,1.9676,1.966,1.9629,1.967,1.967,1.9663,1.959,1.9584,1.9578,1.9632,1.9631,1.9631,1.9592,0,1.9815,1.9776,1.9777,1.9741,1.9723,1.973,1.9711,1.9699,1.9695,1.9678,1.9673,1.9653,1.9665,1.9658,1.9643,1.9636,1.9615,1.9639,1.9614,1.9613,1.9618,1.9571,1.9565,1.9529,1.9587,1.9586,1.9585,0,1.9764,1.975,1.9713,1.9702,1.9694,1.9677,1.966,1.9644,1.9631,1.9629,1.9617,1.962,1.9597,1.9613,1.9581,1.9598,1.9588,1.9583,1.9582,1.9579,1.9597,1.9567,1.9517,1.9512,1.9577,1.9578,1.9578,0,1.9732,1.9703,1.9678,1.9671,1.9657,1.9645,1.9638,1.9626,1.9615,1.9601,1.9594,1.9576,1.9566,1.9552,1.955,1.9562,1.9518,1.9534,1.9515,1.9515,1.9505,1.9505,1.9452,1.9499,1.9499,1.9499,1.9499,0,1.9688,1.9665,1.9663,1.9647,1.9622,1.9622,1.9597,1.9591,1.9581,1.9564,1.9569,1.9553,1.955,1.9533,1.9531,1.9505,1.9501,1.9498,1.9498,1.9497,1.9498,1.949,1.9493,1.9497,1.9498,1.9498,1.9498,0,1.9648,1.9645,1.9618,1.9608,1.9605,1.9586,1.9577,1.9562,1.9558,1.9537,1.9531,1.9525,1.9506,1.9502,1.9479,1.9477,1.9446,1.9448,1.9451,1.9451,1.9432,1.9434,1.9372,1.9364,1.9416,1.9416,1.9415,0,1.962,1.9603,1.9591,1.958,1.9574,1.9556,1.9546,1.9546,1.9534,1.9519,1.9505,1.9486,1.9471,1.944,1.9433,1.9415,1.9417,1.9396,1.9414,1.9414,1.9416,1.9417,1.9415,1.9392,1.9392,1.9391,1.9391,0,1.9571,1.9571,1.9556,1.954,1.9528,1.9515,1.9503,1.9494,1.9493,1.9479,1.946,1.9449,1.9425,1.9406,1.9389,1.9382,1.9386,1.9386,1.938,1.938,1.9382,1.9381,1.9441,1.9387,1.9387,1.9388,1.9388,1.9388,1.9536,1.9521,1.9511,1.9494,1.9485,1.9475,1.946,1.9455,1.9439,1.9421,1.9422,1.9401,1.9389,1.9366,1.9358,1.9341,1.9347,1.9339,1.9337,1.9335,1.9333,1.9385,1.9337,1.9337,1.9338,1.9338,1.9338,0,1.9487,1.9481,1.9466,1.945,1.9437,1.9443,1.9431,1.9419,1.94,1.939,1.9375,1.9353,1.9335,1.9327,1.9309,1.9297,1.9299,1.9293,1.9293,1.9291,1.9329,1.9335,1.9292,1.9292,1.9292,1.9292,1.9292,1.9292,1.946,1.9436,1.9435,1.9406,1.94,1.938,1.9373,1.9363,1.9354,1.933,1.9315,1.9311,1.9301,1.9283,1.9266,1.9265,1.9258,1.925,1.9249,1.9284,1.9289,1.9293,1.9299,1.9249,1.9249,1.9214,1.9213,1.9213]}]]